This demonstration page uses our WeatherBlox Daily Observations layout. Learn more.

Left ArrowRight Arrow

39.51506, -84.39828

Hourly Observations for March 21, 2021

Temp ( °F °C ) Dew Point ( °F °C ) Humidity (%) Winds ( mph kmh ) Pressure ( in mb ) Visibility ( mi km ) Precip ( " mm )
12:15 am 00:15 Clear 34 0.9 30 -1.1 87 87 NNE 3 6 30.47 1032 10 16 N/A
12:35 am 00:35 Clear 34 1.2 30 -1.2 84 84 NNW 3 6 30.47 1032 10 16 N/A
12:55 am 00:55 Clear 33 0.5 29 -1.6 86 86 N 3 6 30.47 1032 10 16 N/A
1:15 am 01:15 Clear 32 -0.2 29 -1.8 89 89 N 5 7 30.47 1032 10 16 N/A
1:35 am 01:35 Clear 32 -0.2 29 -1.6 90 90 N 5 7 30.47 1032 10 16 N/A
1:55 am 01:55 Clear 32 -0.2 29 -1.6 90 90 NE 5 7 30.46 1031 10 16 N/A
2:15 am 02:15 Clear 31 -0.7 28 -2 91 91 NNE 3 6 30.46 1031 10 16 N/A
2:35 am 02:35 Clear 31 -0.5 29 -1.9 90 90 N 3 6 30.46 1031 10 16 N/A
2:55 am 02:55 Clear 30 -1 28 -2.3 91 91 N 5 7 30.46 1031 10 16 N/A
3:15 am 03:15 Clear 30 -1 28 -2.3 91 91 N 5 7 30.46 1031 10 16 N/A
3:35 am 03:35 Clear 29 -1.4 27 -2.6 92 92 NNE 3 6 30.46 1031 10 16 N/A
3:55 am 03:55 Clear 30 -1 28 -2.1 92 92 NNE 3 6 30.45 1031 10 16 N/A
4:15 am 04:15 Clear 29 -1.6 27 -3 90 90 NNE 5 7 30.45 1031 10 16 N/A
4:35 am 04:35 Clear 29 -1.5 27 -2.9 90 90 NNE 3 6 30.45 1031 10 16 N/A
4:55 am 04:55 Clear 29 -1.4 28 -2 96 96 NNE 3 6 30.45 1031 10 16 N/A
5:15 am 05:15 Clear 30 -1.2 28 -2.4 92 92 NE 3 6 30.45 1031 10 16 N/A
5:35 am 05:35 Clear 29 -1.9 27 -2.7 94 94 NNE 3 6 30.45 1031 10 16 N/A
5:55 am 05:55 Clear 28 -2.1 26 -3.1 93 93 NNE 5 7 30.46 1032 10 16 N/A
6:15 am 06:15 Clear 29 -1.7 27 -2.7 93 93 NNE 5 7 30.45 1031 10 16 N/A
6:35 am 06:35 Clear 29 -1.6 27 -2.9 91 91 NE 5 7 30.46 1031 10 16 N/A
6:55 am 06:55 Clear 28 -2 26 -3.1 92 92 NE 5 7 30.46 1032 10 16 N/A
7:15 am 07:15 Clear 29 -1.7 28 -2.5 94 94 NE 5 7 30.47 1032 10 16 N/A
7:35 am 07:35 Clear 27 -2.7 26 -3.4 95 95 NE 5 7 30.47 1032 10 16 N/A
7:55 am 07:55 Sunny 26 -3.1 24 -4.2 92 92 NE 3 6 30.47 1032 10 16 N/A
8:15 am 08:15 Sunny 27 -2.8 26 -3.5 95 95 N N/A 30.48 1032 10 16 N/A
8:35 am 08:35 Sunny 30 -1.2 28 -2.2 93 93 N N/A 30.48 1032 10 16 N/A
8:55 am 08:55 Sunny 33 0.5 31 -0.6 92 92 N N/A 30.47 1032 10 16 N/A
9:15 am 09:15 Sunny 36 2 33 0.5 90 90 N N/A 30.47 1032 10 16 N/A
9:35 am 09:35 Sunny 39 4 33 0.3 77 77 N N/A 30.47 1032 10 16 N/A
9:55 am 09:55 Sunny 43 5.9 33 0.3 68 68 N N/A 30.47 1032 10 16 N/A
10:15 am 10:15 Sunny 46 7.6 28 -2.5 49 49 N N/A 30.47 1032 10 16 N/A
10:35 am 10:35 Sunny 49 9.2 29 -1.8 46 46 NW 3 6 30.46 1032 10 16 N/A
10:55 am 10:55 Sunny 50 10 28 -2.5 42 42 N N/A 30.46 1031 10 16 N/A
11:15 am 11:15 Sunny 53 11.4 28 -2.1 39 39 W 5 7 30.46 1031 10 16 N/A
11:35 am 11:35 Sunny 54 12.1 26 -3.2 35 35 N N/A 30.44 1031 10 16 N/A
11:55 am 11:55 Sunny 55 12.6 26 -3.4 33 33 N N/A 30.44 1031 10 16 N/A
12:15 pm 12:15 Sunny 57 13.9 28 -2.3 33 33 WNW 5 7 30.43 1030 10 16 N/A
12:35 pm 12:35 Sunny 60 15.4 28 -2.5 29 29 ESE 6 9 30.42 1030 10 16 N/A
12:55 pm 12:55 Sunny 60 15.6 23 -5.2 24 24 SE 8 13 30.41 1030 10 16 N/A
1:15 pm 13:15 Sunny 61 15.9 24 -4.4 25 25 SE 7 11 30.39 1029 10 16 N/A
1:35 pm 13:35 Sunny 61 16.3 24 -4.6 24 24 NNE 3 6 30.38 1029 10 16 N/A
1:55 pm 13:55 Sunny 63 17.3 21 -6 20 20 E 9 15 30.37 1028 10 16 N/A
2:15 pm 14:15 Sunny 63 17.3 19 -7.1 18 18 SSE 8 13 30.36 1028 10 16 N/A
2:35 pm 14:35 Sunny 64 18 22 -5.3 20 20 ESE 5 7 30.35 1028 10 16 N/A
2:55 pm 14:55 Sunny 64 17.8 20 -6.4 19 19 SSW 6 9 30.34 1027 10 16 N/A
3:15 pm 15:15 Sunny 64 17.9 18 -8 16 16 SSE 5 7 30.33 1027 10 16 N/A
3:35 pm 15:35 Sunny 65 18.3 17 -8.3 16 16 SSE 5 7 30.32 1027 10 16 N/A
3:55 pm 15:55 Sunny 65 18.6 17 -8.4 15 15 ESE 7 11 30.31 1026 10 16 N/A
4:15 pm 16:15 Sunny 66 18.9 20 -6.7 17 17 S 5 7 30.30 1026 10 16 N/A
4:35 pm 16:35 Sunny 66 18.8 19 -7.2 16 16 E 5 7 30.29 1026 10 16 N/A
4:55 pm 16:55 Sunny 66 19 18 -7.6 16 16 SE 6 9 30.29 1026 10 16 N/A
5:15 pm 17:15 Sunny 66 19 18 -7.6 16 16 SSE 7 11 30.28 1025 10 16 N/A
5:35 pm 17:35 Sunny 66 18.7 16 -8.8 15 15 ESE 8 13 30.28 1025 10 16 N/A
5:55 pm 17:55 Sunny 65 18.4 19 -7.3 17 17 SE 7 11 30.27 1025 10 16 N/A
6:15 pm 18:15 Sunny 65 18.4 21 -6.3 18 18 SE 8 13 30.27 1025 10 16 N/A
6:35 pm 18:35 Sunny 64 18 23 -5 21 21 SSE 7 11 30.27 1025 10 16 N/A
6:55 pm 18:55 Sunny 64 17.6 24 -4.2 22 22 ESE 8 13 30.27 1025 10 16 N/A
7:15 pm 19:15 Sunny 63 17 27 -2.9 26 26 ESE 7 11 30.27 1025 10 16 N/A
7:35 pm 19:35 Sunny 62 16.8 27 -2.8 26 26 ESE 7 11 30.27 1025 10 16 N/A
7:55 pm 19:55 Clear 61 16 28 -2.3 29 29 ESE 5 7 30.27 1025 10 16 N/A
8:15 pm 20:15 Clear 60 15.3 28 -2.2 30 30 ESE 3 6 30.28 1025 10 16 N/A
8:35 pm 20:35 Clear 51 10.4 33 0.6 51 51 N N/A 30.29 1026 10 16 N/A
8:55 pm 20:55 Clear 46 7.8 34 1 62 62 N 3 6 30.29 1026 10 16 N/A
9:15 pm 21:15 Clear 47 8.4 34 1 60 60 N 3 6 30.28 1026 10 16 N/A
9:35 pm 21:35 Clear 46 7.9 35 1.7 65 65 N 3 6 30.28 1026 10 16 N/A
9:55 pm 21:55 Clear 45 7.4 37 2.7 72 72 N N/A 30.29 1026 10 16 N/A
10:15 pm 22:15 Clear 43 6.2 34 1.3 71 71 N N/A 30.29 1026 10 16 N/A
10:35 pm 22:35 Clear 44 6.4 36 2 74 74 NE 3 6 30.28 1025 10 16 N/A
10:55 pm 22:55 Clear 43 6 33 0.8 70 70 N N/A 30.28 1025 10 16 N/A
11:15 pm 23:15 Clear 41 5.2 34 1.2 76 76 NNE 3 6 30.28 1025 10 16 N/A
11:35 pm 23:35 Clear 42 5.4 34 1.3 75 75 N N/A 30.27 1025 10 16 N/A
11:55 pm 23:55 Clear 40 4.7 34 1.1 78 78 N N/A 30.27 1025 10 16 N/A

Powered by AerisWeather